Regional Weather Roundup
Issued by NWS Raleigh/Durham, NC

Home | Current Version | Previous Version | Text Only | Print | Product List | Glossary On
Versions: 1 2 3 4 5 6 7 8 9 10 11 12 13 14 15 16 17 18 19 20 21 22 23 24 25 26 27
000
ASUS42 KRAH 231810
RWRRAH
NORTH CAROLINA WEATHER ROUNDUP
NATIONAL WEATHER SERVICE RALEIGH NC
200 PM EDT SAT SEP 23 2017

NOTE: "FAIR" INDICATES FEW OR NO CLOUDS BELOW 12,000 FEET WITH NO
SIGNIFICANT WEATHER AND/OR OBSTRUCTIONS TO VISIBILITY.

NCZ001-053-055-056-065-067-231900-
WESTERN NORTH CAROLINA

CITY           SKY/WX    TMP DP  RH WIND       PRES   REMARKS
ASHEVILLE      PTSUNNY   81  61  50 VRB3      30.14F
JEFFERSON      PTSUNNY   78  59  53 E10       30.19F
MORGANTON      SUNNY     86  61  43 CALM      30.12F
HICKORY        SUNNY     84  61  45 NE5       30.08F
RUTHERFORDTON  PTSUNNY   85  61  44 CALM      30.09F
MOUNT AIRY     MOSUNNY   83  65  53 E3        30.12F
BOONE          SUNNY     78  60  54 SE5       30.19F
$$

NCZ021-022-025-041-071-084-088-231900-
CENTRAL NORTH CAROLINA

CITY           SKY/WX    TMP DP  RH WIND       PRES   REMARKS
CHARLOTTE      MOSUNNY   86  63  45 N7        30.07F
GREENSBORO     MOSUNNY   84  65  52 NE6       30.08F
WINSTON-SALEM  SUNNY     85  63  47 VRB5      30.09F
RALEIGH-DURHAM MOSUNNY   85  57  38 N14       30.07F
FORT BRAGG     SUNNY     87  59  38 NE7       30.03F
FAYETTEVILLE   SUNNY     88  57  34 N13       30.03F
BURLINGTON     MOSUNNY   85  63  47 N9        30.07F
LAURINBURG     SUNNY     88  61  40 NE13      30.04F
$$

NCZ011-015-027-028-043-044-047-080-103-231900-
NORTHEASTERN NORTH CAROLINA

CITY           SKY/WX    TMP DP  RH WIND       PRES   REMARKS
ROCKY MT-WILSO MOSUNNY   84  62  47 N13       30.06F
GREENVILLE     MOSUNNY   84  63  48 N6        30.06F
WASHINGTON     MOSUNNY   85  65  51 N9        30.04F
ELIZABETH CITY PTSUNNY   84  70  62 NE10      30.03F
MANTEO         SUNNY     79  70  74 NE10      30.04F
CAPE HATTERAS  SUNNY     83  65  54 NE6       30.03F
$$

NCZ078-087-090-091-093-098-101-231900-
SOUTHEASTERN NORTH CAROLINA

CITY           SKY/WX    TMP DP  RH WIND       PRES   REMARKS
LUMBERTON      NOT AVBL
GOLDSBORO      SUNNY     83  65  53 NE8       30.03F
KINSTON        SUNNY     84  64  51 N8        30.04F
KENANSVILLE    SUNNY     82  64  54 N6        30.05S
NEW BERN       SUNNY     84  61  45 NE10      30.04F
CHERRY POINT   SUNNY     83  67  58 NE10      30.04S
BEAUFORT       MOSUNNY   84  67  56 N9        30.02F
JACKSONVILLE   SUNNY     85  65  51 NE9       30.02F
WILMINGTON     MOSUNNY   87  65  47 VRB6      30.02F
$$





USA.gov is the U.S. government's official web portal to all federal, state and local government web resources and services.